Weather History for Hoonah, AK

Change the Weather History Date:

Friday, October 10, 2014

  Actual Average Record
Temperature  
Mean Temperature 54 °F -  
Max Temperature 57 °F 47 °F 57 °F (2014)
Min Temperature 50 °F 37 °F 24 °F (2002)
Degree Days  
Heating Degree Days 12    
Growing Degree Days 4 (Base 50)    
Moisture  
Dew Point 52 °F    
Average Humidity 97    
Maximum Humidity 100    
Minimum Humidity 88    
Precipitation  
Precipitation 0.44 in - - ()
Sea Level Pressure  
Sea Level Pressure 29.33 in    
Wind  
Wind Speed 8 mph (ENE)    
Max Wind Speed 16 mph    
Max Gust Speed 25 mph    
Visibility 6 miles    
Events Rain    
Averages and records for this station are not official NWS values.
T = Trace of Precipitation, MM = Missing Value Source: NWS Daily Summary

Daily Weather History Graph

Daily Weather History Graph

Search for Another Location

Airport:

Trip Planner

Search our weather history database for the weather conditions in past years. The results will help you decide how hot, cold, wet, or windy it might be!

Date:

Astronomy

Oct. 10, 2014 Rise Set
Actual Time 7:26 AM AKDT 6:09 PM AKDT
Civil Twilight 6:46 AM AKDT 6:49 PM AKDT
Nautical Twilight 6:01 AM AKDT 7:34 PM AKDT
Astronomical Twilight 5:14 AM AKDT 8:21 PM AKDT
Moon 7:21 PM AKDT (10/10) 10:27 AM AKDT (10/10)
Length of Visible Light 12h 02m
Length of Day
10h 43m
Waning Gibbous, 93% of the Moon is Illuminated
Oct 10
Waning Gibbous
Oct 15
Last Quarter
Oct 23
New
Oct 30
First Quarter
Nov 6
Full

Hourly Weather History & Observations

Time (AKDT) Temp. Dew Point Humidity Pressure Visibility Wind Dir Wind Speed Gust Speed Precip Events Conditions
12:56 AM 57.2 °F 53.6 °F 88% 29.24 in 8.0 mi East 16.1 mph 24.2 mph N/A Rain Light Rain
1:56 AM 56.8 °F 54.0 °F 90% 29.25 in 4.0 mi ESE 15.0 mph 25.3 mph 0.04 in Rain Light Rain
2:56 AM 55.9 °F 54.0 °F 93% 29.26 in 5.0 mi ENE 5.8 mph - 0.05 in Rain Light Rain
3:13 AM 55.4 °F 53.6 °F 94% 29.25 in 4.0 mi East 5.8 mph - 0.01 in Rain Light Rain
3:56 AM 55.4 °F 53.6 °F 94% 29.24 in 5.0 mi ENE 6.9 mph - N/A   Mostly Cloudy
4:14 AM 55.4 °F 53.6 °F 94% 29.25 in 6.0 mi ENE 5.8 mph - 0.00 in Rain Light Rain
4:56 AM 52.9 °F 52.9 °F 100% 29.25 in 7.0 mi ENE 3.5 mph - 0.00 in Rain Light Rain
5:56 AM 52.0 °F 52.0 °F 100% 29.27 in 5.0 mi NE 3.5 mph - 0.02 in Rain Light Rain
6:33 AM 51.8 °F 51.8 °F 100% 29.27 in 4.0 mi Calm Calm - 0.04 in Rain Light Rain
6:56 AM 51.8 °F 51.8 °F 100% 29.28 in 10.0 mi Calm Calm - N/A Rain Light Rain
7:56 AM 50.9 °F 50.9 °F 100% 29.31 in 5.0 mi Calm Calm - 0.02 in Rain Light Rain
8:56 AM 50.9 °F 50.9 °F 100% 29.33 in 10.0 mi East 3.5 mph - 0.00 in   Scattered Clouds
9:56 AM 50.9 °F 50.9 °F 100% 29.34 in 10.0 mi Calm Calm - N/A   Mostly Cloudy
10:56 AM 52.0 °F 50.9 °F 96% 29.37 in 7.0 mi East 4.6 mph - 0.00 in Rain Light Rain
11:13 AM 51.8 °F 51.8 °F 100% 29.37 in 2.5 mi ENE 6.9 mph - 0.03 in Rain Rain
11:30 AM 51.8 °F 51.8 °F 100% 29.37 in 4.0 mi ENE 4.6 mph - 0.05 in Rain Light Rain
11:56 AM 52.0 °F 52.0 °F 100% 29.36 in 6.0 mi East 8.1 mph - 0.06 in Rain Light Rain
12:56 PM 51.8 °F 51.8 °F 100% 29.37 in 3.0 mi NE 5.8 mph - N/A Rain Light Rain
1:56 PM 52.0 °F 50.9 °F 96% 29.38 in 3.0 mi ENE 8.1 mph - 0.04 in Rain Light Rain
2:41 PM 51.8 °F 50.0 °F 94% 29.38 in 5.0 mi ENE 6.9 mph - 0.05 in Rain Light Rain
2:56 PM 52.0 °F 50.0 °F 93% 29.38 in 4.0 mi ENE 8.1 mph - 0.07 in Rain Light Rain
3:56 PM 52.0 °F 50.9 °F 96% 29.38 in 8.0 mi East 4.6 mph - 0.01 in Rain Light Rain
4:56 PM 52.0 °F 52.0 °F 100% 29.37 in 10.0 mi Calm Calm - 0.02 in   Overcast
5:56 PM 52.0 °F 50.9 °F 96% 29.37 in 5.0 mi ENE 5.8 mph - 0.00 in Rain Light Rain
6:56 PM 51.8 °F 51.8 °F 100% 29.36 in 8.0 mi ENE 8.1 mph - N/A Rain Light Rain
7:25 PM 51.8 °F 51.8 °F 100% 29.36 in 4.0 mi East 6.9 mph - 0.04 in Rain Light Rain
7:56 PM 52.0 °F 50.9 °F 96% 29.37 in 4.0 mi ENE 6.9 mph - 0.10 in Rain Light Rain
8:56 PM 52.0 °F 50.9 °F 96% 29.37 in 10.0 mi East 5.8 mph - 0.00 in Rain Light Rain
9:56 PM 51.8 °F 51.8 °F 100% 29.36 in 5.0 mi ENE 5.8 mph - N/A Rain Light Rain
10:56 PM 50.9 °F 50.9 °F 100% 29.37 in 10.0 mi East 8.1 mph - 0.00 in   Overcast
11:56 PM 50.9 °F 50.9 °F 100% 29.37 in 7.0 mi East 8.1 mph - 0.01 in Rain Light Rain